Location: Alafon
(8.4500°N, 4.2333°E)
Time: 01:45:30
(UTC+00:00)

Cosmos 2082 - Pass Details

Date: 05 July 2020
Orbit: 835 x 854 km, 71.0° (Epoch: 06 August)

Event Time Altitude Azimuth Distance (km) Brightness Sun altitude
Rises 18:38:56 0° 358° (N) 3,370 7.2 -8.3°
Reaches altitude 10° 18:41:32 10° 6° (N) 2,438 6.4 -8.9°
Maximum altitude 18:46:41 38° 73° (ENE) 1,255 4.3 -10.1°
Enters shadow 18:51:31 12° 139° (SE) 2,336 5.4 -11.2°
